Temp_Advection
nan nan nan nan nan nan nan nan nan nan nan nan nan nan nan nan nan nan nan nan nan nan nan nan nan nan nan nan nan nan nan nan nan nan nan nan nan nan nan nan nan nan nan nan nan nan nan nan nan nan nan nan nan nan
nan 0 0 0 0 0 0 0 0 0 0 0 0 0 0 0 0 0 0 0 0 -0 0 0 1 1 0 0 -0 0 0 -0 -0 -0 -0 0 0 -0 -0 -0 -0 -0 -1 -0 -0 -1 -1 0 0 0 0 1 0 nan
nan 1 0 0 0 0 0 0 0 0 0 0 0 0 0 0 0 0 0 0 0 -0 0 0 0 0 0 0 0 -0 0 -0 -0 -0 -0 0 0 -0 -0 -0 -0 -0 1 0 -0 -0 0 0 1 0 0 -0 0 nan
nan 1 1 0 0 0 0 0 0 0 0 0 0 0 0 0 0 0 0 0 0 0 0 0 0 0 0 0 1 0 0 0 1 0 -0 0 -0 -1 -0 -0 -0 -0 -0 0 -0 -0 1 -0 -0 -0 -0 0 0 nan
nan 0 1 1 0 -0 0 0 0 0 0 0 0 0 0 0 0 0 -0 0 0 0 -0 0 0 -0 0 0 0 0 0 0 -0 -0 -0 -0 -1 0 -0 0 -0 -1 0 0 -0 -0 0 -0 0 0 0 0 -0 nan
nan 0 0 0 0 0 0 -0 0 0 0 0 0 0 0 0 0 0 0 -0 0 0 -0 -0 0 0 0 0 0 0 0 0 0 -0 -0 -1 -0 0 0 -0 -1 -0 0 0 0 -0 -0 -0 0 -0 -0 0 0 nan
nan 0 0 0 0 0 0 -0 -0 -0 -0 0 0 0 0 0 0 0 0 0 0 0 0 -0 0 0 0 0 0 0 1 0 0 0 0 0 -0 1 -0 -1 -1 -0 0 1 -0 0 -0 -0 0 0 0 -0 0 nan
nan 0 0 0 0 0 0 0 0 -0 -0 0 0 0 0 0 0 -0 -0 0 0 0 0 0 0 0 0 0 0 0 0 0 0 0 0 -0 0 0 -0 -1 -0 -0 1 1 0 0 0 -0 -0 -0 0 0 0 nan
nan 0 0 0 0 0 0 0 0 0 0 -0 0 -0 -0 -0 -0 -0 0 0 0 0 0 0 0 -0 -0 0 0 0 0 0 0 0 0 0 0 -0 -1 -0 -0 1 0 0 0 0 -0 -0 -0 0 0 0 -0 nan
nan 0 0 0 0 -0 0 0 0 0 0 0 0 0 0 0 0 0 0 0 0 0 0 0 -0 0 -0 -0 0 0 0 -0 0 0 0 -0 -0 -2 -1 0 0 1 0 0 -0 -0 -0 0 0 0 0 0 0 nan
nan 0 0 -0 -0 -0 -0 -0 0 0 0 0 0 0 0 1 1 0 0 0 0 0 0 0 1 0 0 -0 -0 0 0 0 -0 0 0 -0 -0 -1 0 1 1 0 0 0 0 0 0 0 0 -0 0 0 0 nan
nan 0 0 -0 -0 -0 -0 -0 0 0 0 0 0 0 0 0 0 0 0 0 0 0 0 0 0 0 0 0 -0 0 0 0 -0 -0 -0 -0 -0 -0 -0 0 0 0 0 0 0 0 0 -0 0 0 0 0 0 nan
nan -0 -0 -0 -0 -0 0 0 0 0 0 0 0 -0 -0 -0 0 0 0 0 0 0 0 0 0 0 0 0 -0 0 0 0 0 -0 -0 -0 -0 -0 0 -0 0 0 0 0 0 -0 0 -0 -0 0 0 0 0 nan
nan -0 0 0 0 -0 -0 0 0 0 0 -0 0 0 -0 0 -0 -0 -0 -0 -0 0 0 -0 -0 0 0 -0 0 -0 -0 0 -0 -0 -0 0 -0 0 0 0 0 0 0 0 0 -0 -0 -0 0 0 0 0 0 nan
nan 0 0 -0 -0 -0 0 0 -0 -0 -0 -0 0 0 -0 -0 -0 -0 -0 0 0 0 0 -0 0 -0 -0 0 -0 0 -0 -0 -0 0 0 0 0 0 0 0 0 0 0 0 0 -0 -0 -0 -0 0 0 0 0 nan
nan 0 0 0 -0 -0 -0 0 -0 0 -0 -0 0 0 0 0 0 0 0 0 0 0 0 0 0 0 0 0 -0 -0 -0 0 -0 -0 -0 -0 -0 0 0 0 0 0 0 0 0 -0 -0 -0 0 0 0 0 0 nan
nan -0 -0 0 0 0 -0 -0 -0 -0 -0 -0 -0 0 0 0 -0 -0 0 0 0 0 0 0 0 -0 0 0 0 0 -0 -0 0 0 -0 0 0 0 0 -0 -0 0 0 0 0 -0 -0 -0 -0 -0 -0 -0 0 nan
nan -0 0 0 0 -0 -0 -0 -0 0 0 0 -0 0 0 0 0 0 0 0 0 0 0 -0 0 0 0 -0 0 -0 -0 -0 0 -0 -0 0 0 -0 -0 0 0 0 0 0 0 -0 0 0 0 -0 -0 -0 0 nan
nan -0 -0 0 0 0 0 -0 0 0 -0 -0 0 0 0 0 0 0 0 0 0 0 0 0 0 -0 -0 -0 -0 0 0 0 0 0 0 0 0 0 -0 -0 -0 0 0 0 0 0 -0 -0 0 0 0 0 -0 nan
nan -0 -0 0 0 0 -0 0 0 0 -0 -0 -0 -0 -0 0 0 0 0 0 0 0 0 -0 -0 -0 -0 0 0 0 0 0 0 0 -0 -0 -0 0 0 0 0 -0 -0 -0 0 0 0 -0 -0 0 0 0 0 nan
nan -0 -0 0 0 0 0 0 -0 0 0 -0 0 -0 -0 0 0 0 0 0 0 -0 -0 -0 0 0 0 0 0 0 0 0 0 0 0 -0 -0 0 -0 0 0 0 -0 -0 -0 -0 -0 -0 -0 -0 -0 -0 0 nan
nan -0 0 0 0 0 0 0 0 -0 -0 -0 -0 -0 -0 -0 -0 0 0 0 -0 -0 -0 -0 -0 0 0 0 0 0 -0 -0 -0 0 0 0 -0 -0 -0 0 0 0 0 -0 -0 -0 0 -0 -0 -0 -0 -0 -0 nan
nan 0 0 0 -0 0 0 0 0 0 -0 -0 -0 -0 -0 -0 0 -0 -0 -0 -0 -0 -0 0 0 0 0 0 0 -0 0 -0 -0 -0 -0 0 0 0 0 0 0 -0 -0 -0 -0 -0 -0 -0 0 0 -0 -0 0 nan
nan 0 0 0 0 -0 -0 0 0 0 0 -0 -0 -0 -0 -0 -0 -0 -0 -0 0 0 -0 -0 -0 -0 -0 -0 0 -0 -0 -0 -0 -0 -0 -0 -0 -0 -0 -0 -0 -0 0 -0 -0 -0 -0 0 0 -0 -0 0 -0 nan
nan 0 0 -0 0 0 -0 -0 0 0 -0 0 0 0 -0 0 -0 -0 -0 0 -0 -0 0 0 0 0 0 -0 -0 -0 -0 -0 -0 -0 -0 -0 -1 -1 -1 -1 -1 -1 -0 -1 -1 -0 -0 -0 0 0 0 0 0 nan
nan -0 -0 0 -0 0 0 0 0 0 -0 -0 -0 -0 0 -0 -0 -0 -0 -1 -0 -0 -0 -0 -0 -0 -0 -1 -1 -1 -1 -1 -0 -0 -0 -1 -1 -0 -1 -1 -2 -1 -1 -0 -1 -1 -1 -1 -0 -0 0 -0 -0 nan
nan -0 -0 0 0 -0 0 0 0 0 0 -0 -0 -0 -0 -0 -0 -0 -0 0 0 -0 -0 -0 -0 -0 -0 -0 -1 -1 -1 -1 -1 -1 -1 -0 -1 -1 -0 -0 -0 -1 -1 -1 -1 -1 -1 -1 -1 -1 -0 -0 -0 nan
nan 0 -0 0 0 0 0 -0 -0 -0 0 -0 -0 -0 -0 0 -1 -1 -0 0 0 -0 -0 -0 -1 -0 -0 -0 -0 -1 -1 -1 -1 -1 -1 -0 -1 -1 -1 -0 -0 -1 -1 -1 -1 -1 -1 -1 -1 -1 -0 -0 -0 nan
nan -0 -0 0 0 0 0 0 0 0 -0 0 0 0 -0 -1 1 0 0 -0 -0 -0 -0 -0 -0 -0 -0 -1 -0 -1 -1 -1 -1 -1 -1 -1 -2 -1 -1 -1 -1 -1 -1 -1 -1 -0 -0 -0 -0 -1 -0 -0 0 nan
nan 0 0 0 0 0 -0 -0 -0 0 0 0 0 -0 -0 -0 0 0 0 -0 -0 -0 -0 -0 -1 -1 -0 -1 -0 -0 -1 -1 -1 -1 -1 -1 -1 -1 -1 -1 -1 -1 -1 -1 -1 -1 -1 -1 -1 -0 -0 -0 -0 nan
nan 0 0 0 -0 -0 -0 -0 -0 -0 0 0 0 0 -0 -0 0 -0 0 -0 -0 -0 -0 -0 -0 -0 0 -0 -0 -1 -1 -0 -1 -1 -1 -1 -1 -1 -1 -1 -1 -1 -1 -1 -1 -1 -1 -1 -1 -0 -0 -0 -0 nan
nan 0 -0 -0 -0 -0 -0 -0 -0 -0 0 0 0 0 -0 -0 -1 0 -0 -0 -0 0 0 0 0 0 -0 0 0 -0 -0 -0 -0 -1 -1 -1 -1 -1 -1 -1 -1 -1 -1 -1 -0 -0 -0 -0 -0 -0 -0 -0 -0 nan
nan nan nan nan nan nan nan nan nan nan nan nan nan nan nan nan nan nan nan nan nan nan nan nan nan nan nan nan nan nan nan nan nan nan nan nan nan nan nan nan nan nan nan nan nan nan nan nan nan nan nan nan nan nan
Wind_Speed
31 27 25 23 22 22 22 20 18 16 14 11 9 8 7 6 6 7 6 5 6 3 3 4 6 9 6 13 4 12 5 2 3 3 3 3 1 4 1 4 7 7 6 4 3 3 6 1 2 2 7 14 4 6
31 27 24 23 21 21 20 19 18 16 14 12 11 9 8 8 7 6 1 5 5 5 6 11 11 11 9 5 10 16 3 8 8 3 2 1 2 2 3 3 7 4 6 4 9 5 10 9 5 7 10 9 4 8
27 28 25 23 21 19 19 18 17 16 15 13 12 11 9 9 9 10 6 8 5 5 4 5 4 10 11 11 12 7 6 6 9 4 7 3 3 4 4 4 3 4 10 3 3 9 12 12 10 2 4 3 2 3
14 22 28 23 20 17 16 16 15 15 14 13 12 11 10 9 9 9 6 9 7 4 4 3 6 7 11 10 12 9 7 11 10 8 5 3 3 12 5 6 4 6 5 6 8 14 15 3 8 11 4 3 3 5
11 10 15 19 20 19 17 15 15 14 14 12 10 10 10 9 9 9 7 8 10 3 4 1 5 10 10 10 7 8 10 11 8 4 3 4 4 2 4 1 3 9 9 7 8 11 4 2 8 1 2 3 4 3
16 12 7 7 14 15 17 16 16 15 12 12 10 10 10 9 8 6 2 6 10 7 2 2 2 1 7 9 7 7 9 8 9 6 5 5 7 7 3 3 8 14 11 9 11 3 4 8 2 4 3 3 2 4
15 13 9 7 7 10 13 17 18 15 12 12 10 9 10 10 11 6 4 4 11 9 3 2 2 2 9 7 7 6 9 6 6 4 6 4 4 9 4 5 9 11 11 10 0 7 6 1 5 7 4 3 3 6
12 11 11 7 5 4 7 11 14 19 15 13 11 9 8 9 11 8 5 3 10 5 5 2 2 2 8 4 3 4 4 4 4 4 4 3 5 3 4 10 15 17 15 6 6 3 5 8 7 7 4 2 6 9
9 9 10 9 6 4 5 7 11 16 20 17 13 11 8 7 6 10 8 3 9 6 3 4 5 4 8 4 4 3 4 1 2 2 4 3 3 6 7 9 11 12 10 10 9 6 8 10 7 3 2 5 8 10
7 7 7 8 9 5 1 6 7 14 19 20 17 8 6 7 11 9 6 3 4 6 5 6 7 3 7 5 3 5 2 1 2 2 3 2 3 15 14 11 8 10 12 11 11 12 10 7 3 2 4 7 9 11
6 7 7 7 8 6 4 1 7 10 18 24 12 7 9 20 13 10 6 5 5 3 7 9 14 6 7 4 3 5 3 2 3 2 4 3 3 8 17 14 7 9 11 11 10 9 6 4 1 4 7 10 16 15
2 5 7 7 8 8 9 7 5 9 8 10 8 11 11 4 2 4 5 3 4 4 5 7 5 7 7 5 4 5 3 2 4 9 2 3 3 5 11 9 8 10 12 11 9 7 3 1 4 9 13 17 17 18
1 1 4 8 7 8 12 8 7 6 16 13 3 3 1 1 2 2 4 2 2 4 5 5 4 5 5 4 5 2 6 5 1 3 3 2 8 7 9 10 11 11 13 11 6 2 2 6 12 17 19 19 18 20
1 1 1 4 6 4 7 6 7 5 2 3 2 3 2 2 2 1 2 3 3 2 11 14 6 4 3 3 3 3 1 2 3 3 4 2 7 6 9 11 11 9 9 6 3 7 12 19 23 22 20 19 20 24
2 2 1 2 4 4 2 2 3 5 4 3 2 2 2 2 3 3 2 4 6 9 8 7 6 4 2 3 0 3 4 3 2 2 3 10 7 11 12 10 9 7 5 6 8 15 22 23 23 23 20 20 23 23
2 0 4 1 3 3 4 2 3 1 3 2 2 3 3 3 3 4 6 7 7 9 6 5 2 1 2 2 2 1 1 0 2 3 5 7 8 6 5 5 5 5 8 12 17 24 22 21 21 22 23 24 24 21
1 1 3 4 3 2 3 4 2 3 2 2 2 4 4 5 3 3 4 4 3 3 2 2 2 4 1 0 1 1 1 2 5 6 7 8 6 4 1 3 9 13 15 19 21 22 22 23 23 24 25 21 15 16
2 2 3 7 3 3 1 2 3 2 2 2 2 3 2 3 3 4 4 5 3 2 1 1 4 1 0 1 2 2 3 4 5 6 4 4 2 4 9 12 12 12 16 19 20 21 22 20 19 22 22 21 18 20
4 2 5 11 8 2 1 2 3 1 2 2 3 3 2 2 3 4 4 4 3 4 4 2 1 2 1 2 2 1 5 5 3 3 1 4 10 14 12 10 13 15 14 15 18 20 20 21 22 22 22 21 23 23
8 4 9 13 10 4 2 2 4 2 2 4 5 5 4 2 3 4 5 5 4 3 2 1 2 1 1 1 3 3 2 3 2 6 8 9 7 8 11 13 16 17 17 16 17 18 19 21 23 23 23 25 25 26
9 9 7 13 12 5 3 4 3 2 4 2 5 4 3 4 3 2 2 5 2 3 4 8 6 6 6 7 6 5 7 9 9 9 11 11 9 12 17 16 12 12 15 18 21 25 27 28 27 28 27 27 28 28
12 12 10 15 2 4 3 6 4 4 3 4 6 5 3 2 2 2 2 2 4 8 6 6 6 6 7 8 7 6 7 8 9 10 10 10 11 11 11 12 15 18 20 23 27 30 29 26 27 27 27 26 26 27
15 14 8 5 2 3 4 9 4 5 4 6 5 4 2 3 2 3 3 5 5 5 6 7 6 8 9 7 7 5 4 6 7 8 11 12 12 13 16 18 19 22 25 29 26 25 27 28 32 29 27 26 26 23
10 6 4 4 3 3 6 3 4 5 4 5 4 3 4 3 3 3 2 3 1 1 2 2 2 2 1 0 1 1 4 6 7 8 10 14 19 21 23 25 26 28 28 26 28 31 31 29 27 23 22 20 21 20
5 4 5 3 3 4 4 5 4 3 3 3 4 2 3 4 3 3 2 4 4 1 1 2 2 1 1 1 1 2 6 7 9 19 21 18 21 26 26 26 29 29 32 34 29 26 28 28 27 23 21 19 21 20
2 3 2 3 3 3 4 3 4 4 3 3 3 4 3 3 2 3 2 6 6 7 8 6 7 4 5 7 8 11 17 21 23 25 23 23 25 27 28 26 25 21 19 18 19 22 25 24 22 21 19 20 20 18
3 2 2 2 5 8 5 4 5 3 3 3 4 5 3 3 4 3 5 5 3 1 5 3 1 3 6 10 15 17 19 22 22 22 22 19 16 18 18 16 16 20 24 24 22 20 20 19 19 18 20 20 18 17
3 2 3 3 4 3 4 4 3 3 2 5 9 4 3 2 3 3 2 2 1 2 1 4 9 12 12 15 14 14 17 16 15 13 8 4 10 16 16 18 19 20 20 19 19 19 18 19 18 18 18 19 17 13
3 4 3 4 3 3 2 2 2 3 3 6 4 3 3 3 7 5 5 2 3 3 6 8 10 10 9 8 7 11 16 16 17 16 15 14 18 20 21 22 22 22 22 21 19 17 17 16 15 16 14 10 11 13
2 3 3 2 2 2 3 2 2 3 3 3 2 2 2 2 3 4 3 5 5 6 6 6 7 8 7 8 7 7 11 18 16 15 16 18 22 24 25 25 26 25 24 23 22 20 17 17 13 10 13 16 13 7
2 2 3 2 2 3 1 3 2 3 3 2 4 1 4 4 2 2 2 3 4 5 3 4 4 7 8 9 10 12 11 13 17 19 19 21 23 24 26 26 26 25 23 22 21 18 17 16 10 9 12 11 10 9
3 4 2 1 3 3 4 2 1 1 2 2 2 2 2 4 3 3 2 4 2 3 5 6 7 9 10 9 10 12 15 18 18 21 23 24 25 24 24 25 25 24 23 20 17 15 15 13 11 11 10 12 11 11
2 3 3 3 2 2 3 4 2 2 2 3 2 1 2 3 3 1 2 2 2 4 6 9 10 11 10 12 13 13 19 21 22 21 21 23 24 24 25 24 23 22 20 18 14 14 15 14 12 11 11 10 10 10
Wind_Direction
177 180 181 181 183 185 189 190 191 193 195 198 200 200 198 195 188 183 186 166 145 121 151 75 137 199 173 188 138 149 131 154 87 96 152 197 154 225 171 191 163 168 163 198 198 233 255 100 299 219 351 328 7 357
165 177 178 180 183 184 187 191 193 194 197 199 199 201 202 198 193 176 167 173 166 156 171 179 170 171 180 139 158 165 189 154 170 132 161 154 183 0 24 214 206 210 188 186 188 215 213 314 217 262 257 231 305 290
156 166 177 181 184 185 185 187 192 193 196 200 202 200 201 203 195 189 178 172 136 128 116 136 174 193 190 160 154 147 204 194 176 134 145 167 184 173 179 228 277 250 267 212 201 252 269 285 305 188 135 114 166 267
93 146 165 175 182 184 182 187 189 194 196 199 202 203 201 203 202 198 180 186 148 156 133 176 210 206 205 196 191 176 203 183 176 160 123 157 176 199 195 259 254 222 263 269 275 282 286 342 116 133 119 263 244 244
115 95 138 173 182 187 188 189 193 192 195 198 201 203 203 200 199 206 216 203 196 171 167 130 179 237 213 195 185 189 184 181 163 133 128 207 212 282 94 71 237 242 260 248 260 272 243 107 146 200 309 218 242 301
85 101 109 123 163 185 192 195 199 198 193 195 196 201 202 195 184 161 197 243 212 177 175 120 215 193 214 200 188 188 188 193 194 177 193 240 213 199 154 226 247 253 268 281 310 342 102 133 139 333 118 143 279 306
76 78 107 114 145 177 189 203 206 202 207 201 199 201 200 195 180 165 182 219 204 186 169 109 205 223 181 174 176 196 202 213 224 233 198 212 240 206 160 225 248 270 261 262 93 135 118 94 143 158 168 195 257 293
72 67 70 98 143 149 181 200 207 210 209 206 206 206 211 202 200 208 214 236 180 169 192 150 159 213 170 167 153 166 163 208 229 251 144 200 242 223 245 243 255 258 254 184 154 190 190 173 177 186 197 261 305 310
70 60 55 56 66 172 188 192 204 205 203 200 205 209 218 215 203 210 208 202 201 196 212 162 159 197 164 139 130 141 169 160 251 234 193 215 163 221 230 245 251 238 170 162 165 185 174 173 169 178 263 298 312 319
64 53 38 32 34 42 127 201 194 199 198 197 196 198 197 179 190 202 222 231 221 220 216 184 179 165 158 154 115 129 161 254 227 217 180 235 252 251 251 266 255 186 168 173 175 180 173 168 188 275 301 307 308 303
53 45 26 15 13 27 19 40 180 185 190 190 190 192 180 159 159 176 180 194 200 246 210 191 183 150 158 137 150 187 172 162 239 174 216 231 253 236 247 227 202 179 176 176 172 170 144 156 260 304 302 293 298 305
61 37 22 12 19 34 39 52 146 182 184 183 155 136 148 185 175 185 180 172 193 216 157 146 120 133 134 138 133 173 165 155 236 146 215 251 241 94 129 151 167 159 150 141 137 136 133 314 312 294 300 303 304 304
116 23 25 21 34 36 52 54 64 135 144 137 138 120 85 78 180 208 204 217 216 156 147 140 80 115 122 140 105 148 189 207 120 182 234 242 102 124 143 151 147 146 150 139 130 121 263 304 311 315 313 308 304 304
90 50 74 26 38 87 58 99 124 128 178 87 85 96 333 144 55 33 323 358 35 181 150 137 107 127 122 103 132 186 141 183 207 220 209 93 107 128 138 151 155 146 178 203 259 306 315 319 318 315 310 307 304 308
340 193 166 344 11 83 107 238 283 360 74 76 65 73 63 81 52 18 47 87 92 116 110 91 78 106 108 122 175 126 175 209 234 205 67 74 109 141 131 133 163 175 213 272 300 314 317 315 312 310 309 306 308 310
306 165 206 185 41 66 44 117 267 129 75 77 87 128 121 90 32 40 59 71 100 87 69 60 77 83 76 55 179 184 227 242 75 55 88 123 111 110 125 153 198 240 269 291 305 311 310 311 310 307 306 306 305 302
211 68 278 180 151 165 31 41 66 68 55 83 103 142 126 113 135 88 58 50 68 47 47 20 46 54 159 143 62 43 8 70 118 126 117 131 127 117 117 304 301 298 294 295 301 305 306 306 303 301 304 313 310 309
128 318 211 178 179 246 346 68 70 76 69 102 145 171 134 89 162 170 177 161 125 66 73 72 144 94 348 287 192 116 129 131 137 137 135 149 168 291 309 299 286 280 284 291 298 304 307 311 308 304 305 304 296 289
224 263 184 178 178 181 152 112 106 111 77 125 144 124 141 180 174 206 212 186 163 127 97 66 50 235 247 58 56 126 151 162 177 197 248 295 300 302 308 303 300 304 307 308 309 307 304 299 301 304 303 293 287 296
226 248 209 183 167 192 111 96 128 102 127 137 137 144 128 149 178 141 152 172 146 105 112 194 248 28 77 140 175 173 235 197 251 291 293 298 299 298 305 307 303 305 304 309 310 310 307 303 306 301 298 296 291 283
233 235 269 198 138 144 130 140 127 125 130 123 153 139 102 107 106 120 156 183 167 218 229 225 246 258 254 239 241 247 260 275 275 275 283 290 290 281 290 297 299 299 296 301 306 313 314 310 309 309 306 300 292 290
240 246 258 200 145 134 131 144 119 135 128 138 169 142 118 142 144 155 172 174 238 236 235 256 268 270 261 280 297 292 286 286 292 296 301 304 302 301 291 283 282 289 294 303 311 309 310 309 309 308 303 299 293 298
241 224 189 182 133 128 141 126 139 157 142 158 166 122 157 161 165 175 225 233 246 258 247 247 248 251 238 241 264 290 315 327 316 308 306 296 289 285 286 293 297 297 298 303 306 305 303 302 305 304 298 296 298 300
211 185 151 154 181 117 136 133 155 129 131 174 172 172 141 162 170 199 240 234 244 287 325 288 255 244 254 41 134 63 341 329 323 318 323 315 303 297 297 295 293 295 300 298 302 303 302 306 315 310 303 299 298 298
199 189 158 147 164 149 134 144 161 157 143 172 153 147 140 164 200 214 229 145 93 50 124 117 116 137 108 75 23 20 330 317 304 304 309 305 298 294 297 298 300 302 303 307 301 301 308 304 307 301 298 293 303 304
160 167 237 138 166 161 141 129 166 162 130 145 146 106 156 195 217 230 127 78 92 76 54 62 56 42 38 19 347 314 308 307 308 308 311 302 306 308 308 310 312 313 294 296 303 305 303 303 299 298 296 302 304 301
155 145 171 133 125 107 98 86 121 140 153 152 154 169 169 205 221 102 118 114 133 28 30 345 352 346 328 316 306 312 312 311 314 315 320 330 316 299 294 308 316 309 311 313 312 307 303 301 301 300 299 302 300 304
84 148 150 124 100 79 113 126 150 160 147 153 149 188 209 231 53 72 124 261 214 88 8 315 310 320 323 314 319 316 311 321 331 333 347 332 345 318 314 318 319 319 318 317 316 313 309 304 304 303 297 297 301 291
83 104 107 82 88 88 108 118 136 127 118 166 189 193 134 96 164 166 236 260 295 296 299 310 314 329 322 333 348 328 328 338 343 347 348 337 326 327 332 330 329 328 325 322 320 317 314 310 303 304 309 295 281 293
82 65 81 71 60 82 70 64 85 163 141 194 174 131 122 126 208 214 257 296 310 328 339 343 341 348 358 354 351 357 336 328 336 342 337 329 326 326 326 326 326 324 324 323 322 321 319 315 320 309 290 292 297 278
65 63 74 66 68 73 321 319 313 293 269 216 230 215 149 175 236 285 309 342 349 349 19 13 7 339 340 345 342 336 326 318 325 325 324 321 322 323 323 325 325 324 323 322 321 321 320 322 317 308 303 305 310 313
39 42 29 33 75 9 1 15 325 258 234 246 209 210 141 145 107 305 17 98 35 15 1 360 353 345 342 340 325 320 315 321 321 317 322 320 322 323 324 324 324 323 321 321 321 320 314 315 309 305 290 300 313 319
46 38 34 7 338 357 357 350 301 300 244 252 108 123 41 34 97 228 338 20 15 359 349 338 334 337 338 318 327 315 305 313 319 321 319 318 319 320 320 321 322 323 323 323 322 314 311 313 306 302 309 315 322 324
Height
1425 1432 1439 1444 1449 1455 1460 1464 1468 1472 1475 1478 1480 1483 1485 1487 1489 1490 1492 1493 1495 1496 1499 1499 1501 1503 1505 1508 1514 1518 1525 1526 1529 1539 1540 1535 1540 1533 1531 1525 1541 1549 1552 1559 1555 1557 1549 1530 1531 1538 1534 1534 1536 1538
1424 1432 1439 1445 1450 1455 1459 1463 1467 1470 1474 1477 1479 1482 1485 1487 1488 1491 1493 1494 1495 1497 1499 1499 1501 1503 1505 1506 1509 1515 1517 1519 1523 1528 1532 1533 1542 1540 1536 1532 1519 1530 1529 1533 1538 1534 1526 1526 1527 1530 1531 1533 1534 1536
1425 1432 1439 1445 1450 1454 1458 1462 1466 1470 1473 1477 1479 1482 1484 1486 1488 1491 1492 1493 1495 1497 1500 1501 1503 1504 1505 1506 1508 1513 1516 1516 1518 1520 1529 1534 1541 1534 1540 1530 1522 1519 1519 1523 1526 1522 1522 1523 1524 1526 1529 1531 1532 1534
1429 1432 1438 1445 1450 1454 1458 1462 1466 1469 1472 1476 1479 1481 1483 1486 1488 1491 1492 1493 1495 1497 1499 1501 1501 1503 1504 1506 1508 1509 1512 1514 1516 1519 1523 1529 1532 1523 1527 1523 1520 1520 1518 1517 1517 1516 1517 1519 1521 1523 1526 1528 1529 1530
1432 1434 1438 1444 1450 1454 1458 1462 1466 1469 1472 1475 1478 1481 1483 1485 1487 1489 1491 1492 1495 1499 1499 1500 1500 1500 1503 1505 1507 1508 1511 1512 1515 1518 1521 1524 1520 1520 1520 1523 1520 1516 1514 1517 1516 1513 1514 1518 1521 1522 1523 1526 1528 1528
1439 1441 1443 1445 1449 1453 1458 1462 1466 1469 1472 1475 1478 1480 1483 1485 1487 1489 1493 1493 1494 1496 1499 1501 1501 1500 1501 1504 1507 1508 1510 1512 1513 1514 1517 1515 1514 1517 1522 1519 1510 1509 1510 1510 1512 1513 1515 1517 1520 1521 1523 1524 1526 1528
1443 1446 1446 1448 1450 1453 1456 1460 1464 1468 1471 1475 1477 1479 1482 1484 1486 1488 1491 1492 1492 1496 1498 1500 1499 1499 1500 1503 1506 1508 1508 1510 1511 1511 1512 1514 1512 1513 1516 1513 1507 1507 1508 1508 1509 1511 1514 1516 1517 1520 1520 1521 1523 1524
1448 1449 1450 1451 1452 1454 1455 1458 1462 1465 1470 1474 1476 1479 1481 1483 1486 1488 1489 1490 1492 1495 1496 1497 1498 1500 1500 1502 1504 1506 1507 1508 1509 1509 1510 1511 1510 1510 1507 1499 1501 1501 1501 1503 1507 1509 1511 1513 1515 1517 1519 1520 1521 1522
1450 1452 1452 1453 1453 1454 1456 1458 1460 1464 1468 1473 1476 1479 1481 1483 1485 1486 1489 1490 1491 1495 1492 1493 1496 1499 1498 1500 1503 1506 1508 1510 1509 1507 1508 1509 1506 1502 1494 1495 1495 1495 1498 1502 1506 1509 1511 1513 1514 1516 1517 1519 1519 1518
1453 1454 1454 1455 1455 1455 1456 1457 1459 1462 1466 1470 1475 1478 1477 1479 1484 1486 1489 1491 1490 1489 1488 1488 1490 1493 1497 1501 1503 1507 1508 1508 1507 1506 1506 1504 1495 1492 1490 1491 1492 1492 1496 1500 1504 1507 1509 1512 1514 1515 1516 1516 1516 1514
1455 1456 1457 1457 1456 1456 1455 1455 1458 1461 1463 1466 1468 1471 1473 1477 1482 1484 1485 1488 1486 1484 1481 1482 1485 1488 1493 1497 1501 1504 1505 1506 1504 1501 1503 1496 1490 1484 1483 1488 1491 1493 1496 1499 1503 1506 1508 1511 1513 1514 1514 1513 1511 1510
1457 1459 1460 1460 1458 1459 1457 1457 1460 1461 1462 1464 1466 1470 1473 1474 1476 1478 1478 1480 1478 1474 1476 1477 1480 1483 1489 1493 1496 1501 1502 1504 1496 1501 1501 1490 1482 1481 1483 1488 1492 1495 1497 1501 1504 1508 1510 1511 1511 1510 1510 1508 1507 1505
1460 1461 1461 1461 1461 1461 1461 1461 1461 1463 1464 1465 1467 1469 1471 1474 1474 1473 1472 1472 1472 1472 1473 1476 1480 1483 1487 1490 1494 1497 1497 1495 1497 1497 1492 1484 1484 1485 1487 1491 1494 1497 1498 1502 1505 1507 1508 1509 1508 1507 1505 1503 1501 1499
1461 1462 1463 1464 1464 1464 1465 1465 1466 1467 1467 1469 1471 1472 1473 1473 1475 1475 1476 1475 1475 1473 1474 1475 1479 1482 1485 1488 1491 1491 1494 1493 1491 1489 1487 1483 1485 1488 1490 1493 1495 1497 1500 1502 1503 1504 1505 1504 1503 1501 1500 1498 1496 1494
1462 1463 1464 1465 1466 1467 1467 1468 1469 1468 1469 1472 1473 1473 1475 1478 1477 1476 1476 1476 1476 1476 1477 1477 1479 1482 1485 1488 1489 1490 1491 1486 1486 1485 1489 1487 1489 1490 1491 1494 1496 1498 1500 1501 1501 1501 1501 1500 1498 1496 1495 1493 1491 1489
1463 1465 1466 1467 1468 1469 1469 1469 1469 1471 1471 1474 1475 1477 1477 1477 1478 1478 1479 1478 1478 1476 1477 1480 1481 1482 1484 1486 1486 1484 1484 1483 1485 1489 1491 1491 1492 1493 1494 1496 1497 1498 1498 1498 1498 1497 1496 1494 1493 1491 1489 1488 1485 1483
1464 1465 1466 1467 1468 1470 1470 1470 1471 1472 1475 1475 1475 1476 1477 1477 1479 1479 1480 1480 1480 1482 1482 1483 1481 1486 1489 1486 1485 1487 1487 1489 1490 1492 1491 1492 1493 1495 1496 1497 1496 1496 1495 1495 1494 1493 1491 1489 1488 1486 1483 1481 1479 1477
1465 1465 1466 1467 1469 1470 1471 1472 1473 1475 1475 1476 1476 1477 1478 1478 1479 1479 1480 1482 1484 1485 1485 1485 1486 1487 1487 1485 1483 1486 1488 1489 1490 1491 1492 1492 1493 1494 1494 1495 1494 1493 1492 1491 1490 1488 1486 1483 1482 1480 1478 1477 1475 1473
1465 1466 1467 1468 1470 1472 1472 1473 1475 1475 1476 1476 1477 1478 1479 1480 1481 1481 1482 1484 1485 1485 1485 1486 1487 1486 1485 1486 1486 1487 1487 1488 1489 1491 1492 1493 1493 1492 1491 1490 1491 1490 1487 1486 1484 1483 1481 1480 1478 1475 1473 1471 1469 1467
1465 1466 1466 1467 1470 1472 1472 1474 1475 1475 1475 1478 1479 1480 1481 1482 1482 1482 1483 1485 1486 1487 1487 1487 1486 1486 1487 1487 1487 1487 1488 1489 1489 1490 1491 1490 1490 1489 1488 1487 1486 1486 1484 1482 1480 1479 1477 1475 1472 1470 1468 1466 1463 1460
1464 1465 1466 1467 1467 1470 1472 1473 1474 1476 1476 1478 1479 1481 1482 1483 1483 1484 1485 1486 1487 1487 1484 1483 1484 1486 1487 1487 1487 1487 1487 1487 1487 1488 1488 1487 1486 1485 1484 1484 1483 1482 1481 1478 1476 1474 1472 1469 1466 1462 1460 1458 1455 1454
1463 1464 1465 1466 1465 1467 1470 1470 1473 1475 1477 1478 1480 1480 1482 1483 1484 1485 1485 1486 1485 1482 1482 1482 1484 1485 1485 1484 1484 1484 1485 1485 1485 1485 1484 1483 1482 1482 1482 1482 1480 1478 1476 1474 1471 1468 1464 1461 1459 1456 1453 1451 1448 1446
1462 1463 1464 1464 1465 1466 1471 1470 1473 1474 1476 1478 1479 1480 1482 1483 1484 1485 1485 1483 1481 1480 1480 1481 1481 1481 1482 1483 1483 1483 1484 1484 1483 1483 1483 1482 1481 1480 1478 1477 1475 1473 1469 1466 1464 1461 1458 1455 1452 1449 1446 1444 1442 1440
1461 1461 1461 1462 1464 1465 1467 1469 1471 1472 1474 1475 1476 1478 1479 1481 1483 1484 1481 1479 1479 1480 1480 1480 1480 1481 1481 1481 1481 1482 1482 1482 1482 1481 1481 1480 1478 1475 1474 1471 1468 1466 1463 1459 1456 1453 1450 1447 1445 1442 1440 1438 1436 1434
1462 1461 1461 1461 1462 1463 1464 1467 1468 1469 1471 1473 1475 1476 1479 1481 1479 1479 1478 1477 1478 1479 1479 1479 1480 1481 1481 1481 1482 1482 1479 1479 1479 1477 1476 1475 1471 1467 1464 1463 1460 1459 1456 1451 1448 1445 1443 1441 1439 1437 1435 1433 1431 1429
1454 1457 1457 1456 1458 1458 1460 1463 1465 1466 1468 1471 1473 1476 1478 1477 1476 1473 1473 1478 1479 1480 1479 1479 1480 1481 1481 1480 1479 1477 1476 1475 1473 1471 1469 1467 1465 1462 1458 1455 1452 1451 1448 1446 1442 1440 1437 1436 1433 1432 1430 1428 1426 1424
1453 1455 1456 1456 1457 1457 1461 1464 1466 1467 1467 1468 1471 1475 1475 1474 1471 1473 1477 1478 1479 1479 1480 1478 1478 1478 1478 1477 1475 1474 1471 1469 1468 1465 1463 1461 1460 1457 1454 1451 1448 1446 1443 1441 1438 1436 1433 1431 1429 1427 1425 1423 1421 1419
1454 1455 1455 1456 1456 1458 1460 1462 1464 1464 1465 1466 1470 1471 1471 1469 1472 1476 1477 1477 1477 1477 1478 1477 1475 1475 1474 1472 1471 1469 1467 1465 1464 1462 1461 1460 1456 1453 1451 1448 1445 1442 1439 1436 1434 1431 1429 1426 1424 1422 1420 1418 1416 1414
1456 1457 1458 1458 1458 1459 1460 1461 1462 1463 1465 1466 1467 1467 1470 1472 1474 1474 1474 1474 1475 1475 1474 1473 1472 1472 1471 1470 1470 1467 1465 1463 1461 1457 1456 1454 1451 1449 1446 1443 1440 1437 1434 1431 1429 1427 1424 1421 1419 1417 1415 1414 1411 1409
1457 1457 1457 1458 1459 1459 1461 1462 1463 1463 1465 1466 1467 1468 1469 1471 1471 1472 1472 1472 1472 1472 1472 1472 1471 1470 1470 1469 1468 1467 1465 1461 1459 1458 1454 1452 1449 1446 1443 1439 1436 1433 1430 1427 1424 1421 1419 1416 1414 1413 1411 1408 1407 1405
1458 1459 1460 1460 1461 1462 1463 1463 1463 1463 1464 1465 1466 1467 1467 1469 1469 1470 1471 1471 1471 1470 1471 1470 1470 1469 1468 1467 1465 1463 1462 1460 1457 1455 1453 1449 1446 1443 1439 1436 1432 1429 1426 1423 1420 1418 1415 1413 1411 1409 1407 1405 1403 1401
1460 1461 1461 1461 1462 1463 1463 1463 1463 1463 1463 1464 1464 1465 1467 1468 1470 1471 1470 1470 1471 1470 1469 1468 1468 1467 1466 1464 1464 1462 1459 1456 1454 1451 1447 1444 1441 1438 1435 1431 1428 1425 1422 1419 1416 1414 1412 1410 1408 1406 1404 1402 1401 1399
1463 1463 1463 1463 1462 1463 1463 1463 1462 1461 1462 1462 1463 1465 1467 1468 1470 1472 1470 1469 1470 1469 1468 1467 1466 1464 1463 1462 1460 1459 1455 1452 1449 1446 1443 1440 1437 1433 1430 1426 1423 1420 1417 1415 1413 1411 1408 1407 1405 1403 1401 1400 1398 1397